Flag for U.S.A. Weather past 2 weeks in Ann Arbor, Michigan, U.S.A.

Now
67 °F

Light rain. Overcast.


Feels Like: 67 °F
Forecast: 50 / 72 °F
Wind: 10 mph from West

Location: Ann Arbor Municipal Airport

Current Time: Jul 29, 2014 at 7:26:51 PM

Latest Report: Jul 29, 2014 at 6:53 PM


Visibility: 10 mi

Pressure: 29.98 "Hg

Humidity: 66%

Dew point: 55 °F

Location of Ann ArborLocation

Historic Weather in Ann Arbor — Graph

°F

Ann Arbor temperature yesterday

Maximum temperature yesterday: 70 °F (at 12:53 PM)
Minimum temperature yesterday: 55 °F (at 10:53 PM)
Average temperature yesterday: 63 °F

Past Weeks' High & Low Weather Summary

 TemperatureHumidityPressure
High85 °F (Jul 22, 12:53 PM)97% (Jul 20, 1:53 AM)30.24 "Hg (Jul 20, 1:53 AM)
Low43 °F (Jul 29, 1:53 AM)36% (Jul 17, 4:53 PM)29.58 "Hg (Jul 27, 3:53 PM)
Average65 °F70%29.99 "Hg
* Reported Jul 14 5:53 PM — Jul 29 5:53 PM, Ann Arbor, Weather by CustomWeather, © 2014

Note: Actual official high and low records may vary slightly from our data, if they occured in-between our weather recording intervals... More about our weather records

Advertising

Ann Arbor weather history for previous 24 hours

 ConditionsComfort  
Time TempWeatherWind HumidityBarometerVisibility
5:53 PM
Jul 29
73 °FPassing clouds.16 mph51%29.96 "Hg10 mi
4:53 PM75 °FBroken clouds.13 mph47%29.96 "Hg10 mi
3:53 PM74 °FPartly sunny.10 mph46%29.96 "Hg10 mi
2:53 PM72 °FMostly cloudy.N/A48%29.98 "Hg10 mi
1:53 PM71 °FPartly sunny.9 mph49%29.99 "Hg10 mi
12:53 PM66 °FMore clouds than sun.9 mph59%30.01 "Hg10 mi
11:53 AM68 °FOvercast.10 mph51%30.01 "Hg10 mi
10:53 AM68 °FSunny.10 mph51%30.01 "Hg10 mi
9:53 AM64 °FScattered clouds.N/A58%30.01 "Hg10 mi
8:53 AM60 °FSunny.9 mph67%30.01 "Hg10 mi
7:53 AM52 °FSunny.3 mph89%30.01 "Hg10 mi
6:53 AM47 °FClear.5 mph90%30.00 "Hg10 mi
5:53 AM44 °FClear.3 mph93%30.00 "Hg10 mi
4:53 AM47 °FClear.No wind86%30.00 "Hg10 mi
3:53 AM48 °FOvercast.No wind93%30.00 "Hg10 mi
3:04 AM44 °FFog.No wind93%30.00 "Hg1 mi
2:53 AM46 °FFog.3 mph89%30.00 "Hg1 mi
2:04 AM44 °FFog.No wind85%30.01 "Hg2 mi
1:53 AM43 °FFog.3 mph93%30.01 "Hg1 mi
12:53 AM46 °FClear.3 mph86%30.01 "Hg10 mi
11:53 PM
Jul 28
55 °FClear.5 mph72%30.01 "Hg10 mi
10:53 PM55 °FClear.5 mph72%30.02 "Hg10 mi
9:53 PM58 °FScattered clouds.9 mph67%30.01 "Hg10 mi
8:53 PM60 °FPassing clouds.10 mph65%29.98 "Hg10 mi
7:53 PM64 °FPassing clouds.10 mph61%29.97 "Hg10 mi
Weather by CustomWeather, © 2014

See weather overviewHow to use our weather pages